Location: Newark
(33.4453°N, 112.0669°W)
Time: 14:38:11
(UTC+00:00)

LightSail 2 - Pass Details

Date: 29 January 2020
Orbit: 697 x 724 km, 24.0° (Epoch: 29 February)

Event Time Altitude Azimuth Distance (km) Brightness Sun altitude
Rises 02:03:05 0° 254° (WSW) 3,066 10.4 -14.3°
Reaches altitude 10° 02:06:36 10° 230° (SW) 2,153 8.6 -15.0°
Maximum altitude 02:09:13 14° 198° (SSW) 1,886 7.7 -15.5°
Drops below altitude 10° 02:11:52 10° 167° (SSE) 2,160 7.6 -16.1°
Enters shadow 02:15:09 - 143° (SE) 3,005 8.1 -16.7°
